Flight Track Log - Related Links

Times and Time Zones

All times are in EDT time to prevent confusion due to time zone crossing. See the UAL5999 flight status page for this flight to view local times or setup timezone preferences in your user account.

Time Position Orientation Groundspeed Altitude Reporting Facility
EDT Latitude Longitude Course Direction KTS MPH feet Rate Location/Type
Tue 11:03:45 AM 41.9000 -87.9000 169° South 221 254 3,400  Level Chicago TRACON
Tue 11:04:51 AM 41.8333 -87.9000 180° South 258 297 5,000 1,239 Climbing Chicago TRACON
Tue 11:05:17 AM 41.8119 -87.8886 158° South 252 290 5,300 2,659 Climbing Chicago Center
Tue 11:06:00 AM 41.7164 -87.5975 157° South  Level Estimated
Tue 11:06:19 AM 41.7328 -87.8264 150° Southeast 280 322 8,900  Level Chicago Center
Tue 11:07:00 AM 41.6500 -87.5205 156° South  Level Estimated
Tue 11:07:21 AM 41.6622 -87.7692 149° Southeast 294 338 11,400  Level Chicago Center
Tue 11:08:00 AM 41.5645 -87.5474 193° South  Level FlightAware Approximate
Tue 11:08:22 AM 41.5817 -87.7028 148° Southeast 339 390 12,700  Level Chicago Center
Tue 11:09:00 AM 41.4993 -87.4689 169° South  Level Estimated
Tue 11:09:24 AM 41.4883 -87.6311 150° Southeast 378 435 14,000  Level Chicago Center
Tue 11:10:26 AM 41.3931 -87.5564 150° Southeast 393 452 15,700 1,463 Climbing Chicago Center
Tue 11:11:27 AM 41.2958 -87.4817 150° Southeast 400 460 17,000 1,122 Climbing Chicago Center
Tue 11:12:29 AM 41.1964 -87.4050 150° Southeast 411 473 18,000 1,171 Climbing Chicago Center
Tue 11:13:30 AM 41.0961 -87.3278 150° Southeast 418 481 19,400 1,463 Climbing Chicago Center
Tue 11:14:32 AM 40.9769 -87.2344 149° Southeast 416 479 21,000 1,403 Climbing Chicago Center
Tue 11:15:34 AM 40.8719 -87.1592 152° Southeast 426 490 22,300 927 Climbing Chicago Center
Tue 11:16:35 AM 40.7689 -87.0797 150° Southeast 430 495 22,900 341 Climbing Chicago Center
Tue 11:17:37 AM 40.6606 -86.9961 150° Southeast 451 519 23,000 49 Climbing Chicago Center
Tue 11:18:38 AM 40.5519 -86.9153 151° Southeast 450 518 23,000  Level Chicago Center
Tue 11:19:40 AM 40.4450 -86.8344 150° Southeast 447 514 23,000  Level Chicago Center
Tue 11:20:42 AM 40.3222 -86.7431 150° Southeast 448 516 23,000  Level Chicago Center
Tue 11:21:44 AM 40.2144 -86.6644 151° Southeast 446 513 23,000  Level Chicago Center
Tue 11:22:45 AM 40.1069 -86.5850 151° Southeast 445 512 23,000  Level Chicago Center
Tue 11:23:27 AM 40.0408 -86.5344 150° Southeast 447 514 23,000  Level Indianapolis Center
Tue 11:24:29 AM 39.9103 -86.4392 151° Southeast 447 514 23,000 -634 Level Indianapolis Center
Tue 11:25:30 AM 39.8106 -86.3400 143° Southeast 458 527 21,700 -1,902 Descending Indianapolis Center
Tue 11:26:32 AM 39.7575 -86.2000 116° Southeast 435 501 19,100 -2,643 Descending Indianapolis Center
Tue 11:26:54 AM 39.7333 -86.1333 115° Southeast 426 490 18,000 -2,516 Descending Indianapolis TRACON
Tue 11:27:34 AM 39.7111 -86.0603 112° Southeast 424 488 16,500 -2,317 Descending Indianapolis Center
Tue 11:28:35 AM 39.6658 -85.9247 113° Southeast 412 474 14,100 -1,220 Descending Indianapolis Center
Tue 11:29:37 AM 39.6189 -85.7858 114° Southeast 416 479 14,000 -1,210 Descending Indianapolis Center
Tue 11:30:39 AM 39.5722 -85.6489 114° Southeast 414 476 11,600 -1,463 Descending Indianapolis Center
Tue 11:31:40 AM 39.5272 -85.5158 114° Southeast 408 470 11,000 -293 Descending Indianapolis Center
Tue 11:32:42 AM 39.4711 -85.4008 122° Southeast 382 440 11,000 -293 Level Indianapolis Center
Tue 11:33:43 AM 39.4197 -85.2583 115° Southeast 376 433 10,400 -585 Descending Indianapolis Center
Tue 11:34:45 AM 39.3942 -85.1506 107° East 334 384 9,800 -919 Descending Indianapolis Center
Tue 11:35:47 AM 39.3692 -85.0431 107° East 317 365 8,500 -1,403 Descending Indianapolis Center
Tue 11:36:49 AM 39.3442 -84.9397 107° East 308 354 6,900 -1,415 Descending Indianapolis Center
Tue 11:37:50 AM 39.3189 -84.8386 108° East 301 346 5,600 -1,200 Descending Indianapolis Center
Tue 11:38:09 AM 39.3167 -84.8000 94° East 290 334 5,300 -835 Descending Cincinnati TRACON
Tue 11:39:09 AM 39.2500 -84.7333 142° Southeast 252 290 4,500 -947 Descending Cincinnati TRACON
Tue 11:40:03 AM 39.2167 -84.6833 131° Southeast 227 261 3,500 -1,050 Descending Cincinnati TRACON
Tue 11:41:09 AM 39.1500 -84.6667 169° South 196 226 2,400 -1,000 Descending Cincinnati TRACON

Login

Don't have an account? Register now (free) for customized features, flight alerts, and more!